Lid_Strength_Index
5 5 5 4 4 3 3 3 3 3 3 3 3 2 2 2 2 2 2 2 2 2 2 2 2 2 3 5 5 1 -1 1 3 4 5 6 8 9 10 9 10 10 9 8 7 7 9
5 6 6 6 6 5 5 5 5 4 4 4 4 3 3 3 3 3 3 2 3 3 3 2 2 2 4 9 1 1 2 1 2 4 5 5 7 7 9 9 10 9 8 8 8 8 9
5 5 5 6 6 6 6 6 6 5 5 5 4 4 4 3 3 4 4 4 4 3 3 3 2 3 5 6 1 1 1 2 2 2 4 4 6 7 8 9 8 8 10 9 9 8 10
4 4 4 5 5 5 5 5 5 5 5 4 4 4 4 4 4 4 4 4 4 4 3 3 2 4 8 1 2 1 1 2 1 2 3 3 4 7 9 8 8 10 11 13 9 9 9
4 3 4 4 4 4 5 5 5 4 4 4 4 4 4 4 4 4 4 4 4 3 3 4 5 5 7 1 3 2 2 3 2 4 3 3 7 9 9 12 13 12 14 13 11 9 10
5 4 4 4 4 4 4 4 4 4 5 5 5 5 4 4 4 4 5 4 4 4 3 2 3 6 5 6 4 2 3 2 4 6 7 8 10 12 12 13 16 14 14 13 13 10 11
4 4 4 4 4 4 4 4 4 5 5 5 5 5 4 4 4 4 5 6 12 9 7 8 7 6 5 3 2 3 2 3 6 8 11 9 12 14 12 13 12 12 13 13 11 9 12
4 4 4 4 4 4 4 4 5 5 5 5 5 5 4 4 4 4 5 8 8 7 10 8 8 7 5 4 7 5 3 6 8 11 10 11 13 10 10 11 12 12 13 13 11 10 11
3 4 3 4 4 5 5 5 5 5 5 5 5 5 5 5 5 6 6 5 4 5 11 9 8 9 9 7 9 8 5 6 8 10 10 12 10 9 10 11 12 12 12 12 13 11 12
2 2 3 3 4 4 5 5 6 5 5 5 5 5 5 5 7 6 6 4 4 5 15 13 11 9 8 9 11 7 7 7 8 11 10 11 8 9 10 11 10 13 10 11 12 13 15
1 2 2 2 2 3 3 3 4 4 5 6 5 5 5 5 7 7 5 4 4 7 22 12 11 7 8 11 10 9 7 9 12 10 10 12 10 11 12 11 9 12 9 10 11 13 15
1 1 2 2 2 3 3 3 3 3 3 3 3 4 4 5 5 5 4 4 5 16 22 14 11 12 12 10 10 8 9 7 8 10 10 10 8 9 10 9 9 9 11 11 13 15 17
1 1 2 2 2 3 3 3 3 3 3 3 2 2 3 3 5 3 3 6 15 20 13 14 14 12 12 13 12 12 11 12 13 15 15 12 11 9 8 11 9 10 13 18 19 20 18
1 1 2 2 2 3 3 3 3 3 2 2 3 3 4 3 3 3 3 10 19 16 15 11 12 12 13 12 12 12 12 13 10 11 14 16 17 12 10 11 12 12 12 17 22 21 18
1 1 1 2 2 3 3 3 3 3 2 2 2 6 6 5 3 3 6 14 16 13 11 12 11 13 13 12 12 12 13 12 10 11 15 16 16 10 9 9 10 12 14 10 15 14 17
1 2 2 2 2 2 2 2 3 3 2 2 7 8 7 4 3 4 9 13 12 9 9 10 14 12 15 14 13 13 13 10 10 9 10 12 16 11 10 9 9 10 10 15 14 21 21
1 2 2 2 2 2 2 2 3 3 2 2 8 10 7 4 4 6 12 12 10 8 8 10 12 13 13 14 13 14 13 10 10 10 9 10 13 14 11 13 13 12 13 12 12 15 21
2 2 2 2 2 1 2 2 2 2 2 5 9 13 8 4 11 11 12 10 8 9 8 9 9 11 11 12 13 14 13 11 10 10 12 10 12 16 14 11 9 11 13 13 18 18 16
1 1 2 1 1 1 1 2 2 2 2 7 14 12 5 4 17 13 11 9 8 9 9 9 10 9 9 11 14 12 12 9 9 9 11 10 14 19 17 13 10 13 12 12 13 14 17
1 1 1 1 1 1 1 1 1 1 1 6 9 14 12 7 8 10 12 11 11 7 8 8 9 8 10 11 9 12 12 10 9 10 8 8 13 16 18 16 13 15 13 12 13 17 16
0 0 0 0 -0 0 1 1 1 1 1 7 12 13 10 16 13 9 9 10 11 11 7 7 9 9 10 13 12 12 10 10 9 8 8 9 17 13 13 12 12 13 13 13 14 14 17
-0 -0 0 -0 0 0 0 0 0 1 1 8 11 13 10 10 9 10 9 10 11 10 9 10 10 10 9 12 12 14 11 11 12 10 10 9 15 13 15 13 12 13 12 12 12 12 13
-0 -0 -0 -0 -0 -0 0 0 0 1 2 8 8 7 9 11 10 11 12 9 9 8 8 7 8 10 10 9 9 8 8 9 9 11 12 12 15 16 18 14 13 16 13 12 11 10 12
-1 -0 -1 -1 -1 -0 -1 -1 -0 -0 2 6 7 7 12 14 11 11 9 9 10 9 10 8 8 10 8 5 6 7 8 8 9 10 9 12 13 13 16 15 20 14 10 10 11 10 9
-1 -1 -1 -1 -1 -1 -1 -1 -2 -1 -1 4 5 7 10 13 9 9 9 9 8 8 9 9 7 6 5 7 11 13 13 12 12 10 10 9 11 15 17 17 14 12 11 11 11 11 8
-1 -1 -1 -2 -2 -2 -2 -2 -2 -1 -1 4 6 6 8 14 13 8 9 9 11 11 10 9 6 5 6 8 12 15 17 14 14 12 9 9 10 13 15 18 19 12 9 8 8 15 9
-1 -1 -1 -1 -1 -2 -2 -2 -2 -2 -1 3 4 4 7 10 9 8 12 10 9 10 11 10 8 8 7 15 17 16 15 11 15 15 17 13 13 15 15 17 14 10 8 7 15 14 9
-1 -1 -1 -1 -1 -1 -1 -2 -1 -2 -1 1 4 2 4 7 8 7 6 9 8 10 12 10 11 11 12 16 17 15 14 13 13 12 13 16 17 15 14 16 18 8 8 13 9 7 8
-1 -1 -1 -1 -1 -1 -1 -1 -1 -1 -1 -1 4 1 1 5 7 5 5 4 4 5 8 9 10 9 9 14 12 11 13 14 13 16 11 14 12 13 13 13 8 7 7 6 6 7 7